AirNav   Everest Fuels
 
 881 users online  

8B5 Tanner-Hiller Airport
Barre/Barre Plains, Massachusetts, USA

GOING TO BARRE/BARRE PLAINS?


FAA INFORMATION EFFECTIVE 30 JANUARY 2020

Location

FAA Identifier: 8B5
Lat/Long: 42-21-23.0000N 072-07-48.3000W
42-21.383333N 072-07.805000W
42.3563889,-72.1300833
(estimated)
Elevation: 589 ft. / 180 m (estimated)
Variation: 15W (1985)
From city: 4 miles SW of central business district of the associated city
Time zone: UTC -5 (UTC -4 during Daylight Saving Time)
Zip code: 01531

Airport Operations

Airport use: Open to the public
Activation date: 11/1946
Control tower: no
ARTCC: BOSTON CENTER
FSS: BRIDGEPORT FLIGHT SERVICE STATION
NOTAMs facility: BDR (NOTAM-D service available)
Attendance: UNATNDD
Wind indicator: yes
Segmented circle: no

Airport Communications

CTAF/UNICOM: 123.0
WX ASOS at ORH (12 nm SE): PHONE 508-795-7546
WX ASOS at ORE (15 nm NW): 135.675 (978-544-6774)

Nearby radio navigation aids

VOR radial/distance  VOR name  Freq  Var
GDMr210/11.8GARDNER VOR/DME110.6014W
PUTr346/27.2PUTNAM VOR/DME117.4014W
EENr179/27.2KEENE VORTAC109.4014W
BAFr080/28.5BARNES VORTAC113.0014W
CTRr097/36.6CHESTER VOR/DME115.1013W

Airport Services

Parking: hangars and tiedowns
Airframe service: MINOR
Powerplant service: MINOR
Bottled oxygen: NONE
Bulk oxygen: NONE

Runway Information

Runway 6/24

Dimensions: 3027 x 40 ft. / 923 x 12 m
Surface: asphalt, in fair condition
Weight bearing capacity: 
Single wheel: 9.0
RUNWAY 6  RUNWAY 24
Latitude: 42-21.210210N42-21.556043N
Longitude: 072-08.047612W072-07.563877W
Elevation: 581.6 ft.589.0 ft.
Traffic pattern: leftleft
Displaced threshold: 150 ft.200 ft.
Markings: numbers only, in fair conditionnumbers only, in fair condition
Runway end identifier lights: nono
Touchdown point: yes, no lightsyes, no lights
Obstructions: 25 ft. trees, 400 ft. from runway, 100 ft. right of centerline, 8:1 slope to clear
72 FT TREES 57 FT FM THLD 65 FT L.
33 ft. trees, 400 ft. from runway, 39 ft. left and right of centerline, 6:1 slope to clear
RY 24 30:1 AT DSPLCD THLD.

Airport Ownership and Management from official FAA records

Ownership: Privately-owned
Owner: G&C GROUP USA
525 MAIN ST
ACTON, MA 01720
Phone (781) 296-1120
Manager: DOUG HERLIHY
295 MCEVOY ROAD
NEW BRAINTREE, MA 01531
Phone (609) 923-3228

Airport Operational Statistics

Aircraft based on the field: 25
Single engine airplanes: 4
Gliders airplanes: 15
Ultralights: 6
    
Aircraft operations: avg 47/month *
88% local general aviation
9% transient general aviation
3% military
* for 12-month period ending 27 April 2016

Additional Remarks

RWY 24 HAS GRVL OVRN, RWY 06 HAS TURF OVRN.
GLIDERS OPR FM ARPT ON INTMT BASIS. GLIDERS AND POWERED ACFT: FOLLOW LEFT TRAFFIC PATTERN ON BOTH RWYS.
WILDLIFE ON & INVOF ARPT.
FUEL NOT AVBL.
AP CLSD EXC PPR - REF NOTAMS
FOR CD CTC YANKEE APCH AT 860-386-3597

Instrument Procedures

There are no published instrument procedures at 8B5.

Some nearby airports with instrument procedures:

KORH - Worcester Regional Airport (12 nm SE)
KGDM - Gardner Municipal Airport (13 nm NE)
KORE - Orange Municipal Airport (15 nm NW)
3B0 - Southbridge Municipal Airport (16 nm S)
KFIT - Fitchburg Municipal Airport (20 nm NE)
 
Loc | Ops | Rwys | IFR | FBO | Links
Com | Nav | Svcs | Stats | Notes
Area around 8B5 (Tanner-Hiller Airport)
 
Road maps at: MapQuest Bing Google
 
Aerial photo
WARNING: Photo may not be current or correct
Aerial photo of 8B5 (Tanner-Hiller Airport)
Photo by Bruce Vinal, Aerial Perspectives
Photo taken 18-Dec-2010
looking southwest.

Do you have a better or more recent aerial photo of Tanner-Hiller Airport that you would like to share? If so, please send us your photo.

 
Sectional chart

 
Airport distance calculator
Flying to Tanner-Hiller Airport? Find the distance to fly.

From to 8B5

Sunrise and sunset
Times for 17-Feb-2020
 Local
(UTC-5)
 Zulu
(UTC)
Morning civil twilight06:1511:15
Sunrise06:4311:43
Sunset17:2222:22
Evening civil twilight17:5122:51

Current date and time
Zulu (UTC)  18-Feb-2020 04:05:04
Local (UTC-5)  17-Feb-2020 23:05:04
 
METAR
KORH 
13nm SE 
180354Z 07008KT 10SM CLR M03/M11 A3038 RMK AO2 SLP301 T10281111
KORE 
14nm NW 
180352Z AUTO 00000KT 10SM CLR M06/M09 A3041 RMK AO2 SLP306 T10561089
KCEF 
20nm SW 
180256Z 00000KT 10SM FEW190 BKN230 M04/M08 A3039 RMK AO2A SLP300 T10421080 52016
KFIT 
20nm NE 
180352Z AUTO 00000KT 10SM CLR M04/M08 A3043 RMK AO2 SLP308 T10441083
TAF
KORH 
13nm SE 
172117Z 1721/1818 32010KT P6SM SKC FM180100 35003KT P6SM SKC FM180600 06003KT P6SM BKN200 FM181100 09004KT P6SM OVC080 FM181400 13006KT P6SM OVC040 FM181500 13007KT 4SM -SNRA OVC015
KCEF 
20nm SW 
171900Z 1719/1901 31010G15KT 9999 FEW045 FEW250 QNH3021INS BECMG 1721/1722 VRB06KT 9999 FEW035 FEW200 QNH3026INS BECMG 1807/1808 VRB06KT 9999 SCT020 BKN100 OVC150 510203 QNH3042INS BECMG 1811/1812 10006KT 9999 BKN025 BKN070 OVC100 WS015/12028KT 620709 510203 QNH3042INS BECMG 1814/1815 14009KT 8000 -SN BR OVC010 WS020/15030KT 620209 540208 QNH3035INS BECMG 1817/1818 14006KT 6000 -RA BR OVC005 WS015/15030KT 620509 540159 QNH3019INS BECMG 1823/1824 31006KT 4800 -DZ BR OVC005 WS015/23030KT 620509 54
NOTAMs
Click for the latest NOTAMs
NOTAMs are issued by the DoD/FAA and will open in a separate window not controlled by AirNav.

 

 
 

Would you like to see your business listed on this page?

 If your business provides an interesting product or service to pilots, flight crews, aircraft, or users of the Tanner-Hiller Airport, you should consider listing it here.  To start the listing process, click on the button below
 
Add a business
 

Other Pages about Tanner-Hiller Airport

www.tannerhillerairport.com
 
Update a link
 
Copyright © AirNav, LLC. All rights reserved. Privacy Policy  Contact